Regional Weather Roundup
Issued by NWS

Home | Current Version | Previous Version | Text Only | Print | Product List | Glossary On
Versions: 1 2 3 4 5 6 7 8 9 10 11 12 13 14 15 16 17 18 19 20 21 22 23 24 25 26 27 28 29 30 31 32 33 34 35 36 37 38 39 40 41 42 43 44 45 46 47 48 49 50
000
ASUS43 KIND 261209
RWRIN

WEATHER ROUNDUP FOR INDIANA
NATIONAL WEATHER SERVICE INDIANAPOLIS IN
800 AM EDT WED APR 26 2017

NOTE: "FAIR" INDICATES FEW OR NO CLOUDS BELOW 12,000 FEET WITH NO
SIGNIFICANT WEATHER AND/OR OBSTRUCTIONS TO VISIBILITY.

* - STATION DOES NOT REPORT WEATHER SUCH AS PRECIPITATION OR FOG.

+ - STATION NOT QUALITY CONTROLLED BY THE NATIONAL WEATHER SERVICE.
    USE DATA WITH CAUTION...ESPECIALLY DEWPOINT AND RELATIVE
    HUMIDITY OBSERVATIONS.

INZ001>003-010>013-019-020-261300-
NORTHWEST INDIANA

CITY           SKY/WX    TMP DP  RH WIND       PRES   REMARKS
GARY /AIRPORT/ PTSUNNY   66  54  63 SE15      29.51R
KNOX *+        CLOUDY    63  36  36 S13       29.54R
LA PORTE +     PTSUNNY   63  55  77 S8        29.55R
6HR MIN TEMP:  61; 6HR MAX TEMP:  65;

MICHIGAN CITY+ CLOUDY    63  54  72 S8        29.54R
MONTICELLO +   MOSUNNY   64  55  73 S9G16     29.56R
6HR MIN TEMP:  63; 6HR MAX TEMP:  65;

RENSSELAER +   CLOUDY    63  55  77 S16       29.55R
VALPARAISO     CLOUDY    64  56  75 S10G18    29.54R
6HR MIN TEMP:  64; 6HR MAX TEMP:  67;


$$

LMZ046-743>745-261300-
SOUTHERN LAKE MICHIGAN

STATION/POSITION TIME  TEMP    WIND        PRES    WAVE
                       AIR SEA DIR/SP/G            HT
                 (UTC) (F)     (DEG/KT/KT) (MB)    (FT)
BURNS HARBOR     1140   65     160/  9/ 16 1000.0R
MICHIGAN CITY    1140   64     150/ 11/ 15   N/A

$$

INZ004-005-014>016-021>024-261300-
NORTH CENTRAL INDIANA

CITY           SKY/WX    TMP DP  RH WIND       PRES   REMARKS
ELKHART        CLOUDY    63  55  77 SE5       29.57F
GOSHEN         PTSUNNY   63  54  72 S15       29.58S
6HR MIN TEMP:  62; 6HR MAX TEMP:  64; 6HR PCP: TRACE;

LOGANSPORT +   CLOUDY    63  54  72 S15       29.59S
PERU/GRISSOM   MOSUNNY   62  58  86 S13       29.59R
6HR MIN TEMP:  60; 6HR MAX TEMP:  62;

ROCHESTER +    CLOUDY    64  55  72 S9        29.59R
SOUTH BEND     CLOUDY    62  55  77 S12       29.56S
6HR MIN TEMP:  62; 6HR MAX TEMP:  66; 6HR PCP: TRACE;

WARSAW +       CLOUDY    61  54  77 SE6       29.59S

$$

INZ006>009-017-018-025>027-261300-
NORTHEAST INDIANA

CITY           SKY/WX    TMP DP  RH WIND       PRES   REMARKS
ANGOLA *+      SUNNY     59  55  88 SE8       29.62F
AUBURN +       PTSUNNY   59  54  82 SE3       29.64S
FORT WAYNE     CLOUDY    60  55  83 SE10      29.63F
6HR MIN TEMP:  58; 6HR MAX TEMP:  60;

HUNTINGTON +   CLOUDY    60  56  87 S6        29.62S
6HR MIN TEMP:  58; 6HR MAX TEMP:  62;

KENDALLVILLE + MOSUNNY   59  56  88 SE10      29.62F

$$

INZ028-029-035-036-043>045-051>053-261300-
WEST CENTRAL INDIANA

CITY           SKY/WX    TMP DP  RH WIND       PRES   REMARKS
CRAWFORDSVL +  CLOUDY    60  56  85 S10       29.60R
6HR MIN TEMP:  59; 6HR MAX TEMP:  61;

GREENCASTLE +  CLOUDY    61  54  77 S9        29.63R
LAFAYETTE      PTSUNNY   63  56  78 S12G18    29.57R
6HR MIN TEMP:  62; 6HR MAX TEMP:  64;

TERRE HAUTE    PTSUNNY   65  55  70 S15       29.60R
6HR MIN TEMP:  62; 6HR MAX TEMP:  65;


$$

INZ030>032-037>040-046>048-054>057-064-065-261300-
CENTRAL INDIANA

CITY           SKY/WX    TMP DP  RH WIND       PRES   REMARKS
CP ATTERBURY + MOSUNNY   59  54  82 S5        29.66R
COLUMBUS       SUNNY     59  55  88 S9        29.65F
FISHERS *+     CLOUDY    61  57  88 S10       29.64
FRANKFORT +    CLOUDY    65  57  75 S9        29.62R
6HR MIN TEMP:  63; 6HR MAX TEMP:  66;

GREENWOOD *+   MOSUNNY   62  55  80 S10       29.65R
6HR MIN TEMP:  60; 6HR MAX TEMP:  63;

INDIANAPOLIS   CLOUDY    61  56  83 S9        29.62R
6HR MIN TEMP:  60; 6HR MAX TEMP:  63;

-EAGLE CREEK   CLOUDY    63  55  75 S5        29.62R
6HR MIN TEMP:  62; 6HR MAX TEMP:  65;

KOKOMO +       MOSUNNY   62  56  80 S16       29.62R
6HR MIN TEMP:  60; 6HR MAX TEMP:  62;

MARION +       CLOUDY    63  55  77 S15       29.62S
MT COMFORT *+  PTSUNNY   61  55  82 S10       29.64R
SHELBYVILLE    CLOUDY    63  55  75 S13       29.64S
6HR MIN TEMP:  60; 6HR MAX TEMP:  63;

ZIONSVILLE +   CLOUDY    62  55  78 S10       29.63R
6HR MIN TEMP:  59; 6HR MAX TEMP:  63;


$$

INZ033-034-041-042-049-050-058-059-261300-
EAST CENTRAL INDIANA

CITY           SKY/WX    TMP DP  RH WIND       PRES   REMARKS
MUNCIE         CLOUDY    65  55  70 S9        29.63F
6HR MIN TEMP:  62; 6HR MAX TEMP:  65;

RICHMOND +     MOSUNNY   59  55  88 S10       29.69F

$$

INZ060-061-067>069-081>083-085>088-261300-
SOUTHWEST INDIANA

CITY           SKY/WX    TMP DP  RH WIND       PRES   REMARKS
EVANSVILLE     PTSUNNY   65  56  72 S10       29.65R
6HR MIN TEMP:  62; 6HR MAX TEMP:  65;

HUNTINGBURG *+ SUNNY     64  57  78 S10       29.67R
6HR MIN TEMP:  60; 6HR MAX TEMP:  64;

WASHINGTON +   CLOUDY    64  53  67 SW7       29.63R

$$

INZ062-063-066-070>080-084-089>092-261300-
SOUTH CENTRAL AND SOUTHEAST INDIANA

CITY           SKY/WX    TMP DP  RH WIND       PRES   REMARKS
BEDFORD +      CLOUDY    63  54  72 S8        29.65R
BLOOMINGTON    CLOUDY    61  55  81 S9        29.64R
6HR MIN TEMP:  59; 6HR MAX TEMP:  64;

MADISON *+     MOSUNNY   59  54  82 SE8       29.71S
NORTH VERNON + MOSUNNY   61  54  77 S8        29.68S
SEYMOUR +      CLOUDY    61  55  82 SE8       29.66S

$$




USA.gov is the U.S. government's official web portal to all federal, state and local government web resources and services.